contact:dominique.lefevre@mio.osupytheas.fr, maurice.libes@osupytheas.fr, didier.mallarino@osupytheas.fr
Project:EMSO http://www.emso-fr.org/EMSO-France
Depth: 2436.0 m
Title:EMSO Ligure Ouest : Data MII capteur AQUADOPP
Date,Latitude,Longitude,X_East,Y_North,Z_Up,Amplitude_X,Amplitude_Y,Amplitude_Z,Batterie,SoundSpeed,Heading,Pitch,Roll,Pressure,TIS,Speed,Direction
, degrees North, degrees East, m.s-1, m.s-1,m.s-1, 1, 1, 1, Volt, m.s-1, degree, degree, degree, dbar, degree_C, m.s-1, degree
2020-11-13T00:04:02,42.805,6.029,-0.027,-0.008,-0.016,103.0,107.0,102.0,13.4,1505.3,324.2,-0.7,1.8,2470.367,13.31,0.028,253.5
2020-11-13T00:07:02,42.805,6.029,0.006,-0.01,0.017,104.0,107.0,101.0,13.4,1505.3,324.1,-0.7,1.9,2470.331,13.32,0.011,149.0
2020-11-13T00:10:03,42.805,6.029,-0.019,-0.026,0.014,105.0,109.0,101.0,13.3,1505.3,323.4,-0.7,1.8,2470.337,13.33,0.032,216.2
2020-11-13T00:13:03,42.805,6.029,-0.016,0.004,0.002,104.0,106.0,102.0,13.3,1505.3,324.1,-0.7,1.8,2470.32,13.33,0.016,284.0
2020-11-13T00:16:03,42.805,6.029,-0.033,-0.002,0.009,105.0,107.0,101.0,13.4,1505.3,324.6,-0.7,1.9,2470.306,13.33,0.033,266.5
2020-11-13T00:19:03,42.805,6.029,-0.049,-0.013,-0.02,106.0,106.0,102.0,13.4,1505.3,326.3,-0.7,1.8,2470.315,13.33,0.05,255.1
2020-11-13T00:22:02,42.805,6.029,-0.052,-0.007,-0.018,105.0,105.0,101.0,13.3,1505.3,326.5,-0.7,1.8,2470.322,13.33,0.052,262.3
2020-11-13T00:25:03,42.805,6.029,-0.021,-0.009,0.002,105.0,105.0,102.0,13.3,1505.3,326.4,-0.7,1.8,2470.352,13.33,0.022,246.8
2020-11-13T00:28:03,42.805,6.029,-0.038,-0.01,0.001,105.0,106.0,102.0,13.4,1505.3,326.2,-0.7,1.8,2470.353,13.33,0.039,255.3
2020-11-13T00:31:03,42.805,6.029,0.0,0.006,0.007,104.0,106.0,103.0,13.3,1505.3,326.5,-0.7,1.8,2470.322,13.33,0.006,0.0
2020-11-13T00:34:03,42.805,6.029,-0.037,-0.011,0.015,104.0,106.0,102.0,13.3,1505.3,326.7,-0.7,1.8,2470.315,13.33,0.038,253.4
2020-11-13T00:37:02,42.805,6.029,-0.04,0.0,0.005,106.0,106.0,101.0,13.4,1505.3,326.4,-0.7,1.8,2470.309,13.33,0.04,270.0
2020-11-13T00:40:03,42.805,6.029,-0.046,0.001,-0.026,105.0,107.0,101.0,13.4,1505.3,327.2,-0.7,1.8,2470.312,13.33,0.046,271.2
2020-11-13T00:43:03,42.805,6.029,-0.045,-0.007,-0.032,105.0,107.0,101.0,13.4,1505.3,323.9,-0.7,1.8,2470.309,13.33,0.045,261.2
2020-11-13T00:46:03,42.805,6.029,-0.021,-0.007,0.009,105.0,107.0,102.0,13.4,1505.3,326.3,-0.7,1.8,2470.299,13.33,0.022,251.6
2020-11-13T00:49:03,42.805,6.029,-0.01,-0.001,0.027,104.0,108.0,102.0,13.3,1505.3,326.2,-0.7,1.8,2470.291,13.33,0.01,264.3
2020-11-13T00:52:03,42.805,6.029,-0.037,0.0,-0.03,105.0,107.0,101.0,13.4,1505.3,324.8,-0.7,1.9,2470.293,13.33,0.037,270.0
2020-11-13T00:55:03,42.805,6.029,-0.028,-0.003,-0.027,104.0,106.0,102.0,13.3,1505.3,324.6,-0.7,1.9,2470.327,13.33,0.028,263.9
2020-11-13T00:58:03,42.805,6.029,-0.04,-0.006,-0.004,104.0,107.0,102.0,13.4,1505.3,327.1,-0.7,1.8,2470.303,13.33,0.04,261.5
2020-11-13T01:04:02,42.805,6.029,-0.026,0.001,-0.015,105.0,109.0,103.0,13.4,1505.3,325.4,-0.8,1.8,2470.333,13.31,0.026,272.2
2020-11-13T01:07:03,42.805,6.029,-0.003,-0.015,-0.032,104.0,107.0,102.0,13.4,1505.3,325.2,-0.7,1.9,2470.337,13.32,0.015,191.3
2020-11-13T01:10:03,42.805,6.029,-0.014,-0.008,-0.041,105.0,107.0,101.0,13.4,1505.3,324.0,-0.7,1.8,2470.33,13.32,0.016,240.3
2020-11-13T01:13:03,42.805,6.029,-0.012,0.021,0.025,103.0,107.0,101.0,13.4,1505.3,326.8,-0.7,1.8,2470.343,13.33,0.024,330.3
2020-11-13T01:16:03,42.805,6.029,-0.003,0.007,0.002,104.0,108.0,101.0,13.4,1505.3,327.1,-0.7,1.8,2470.359,13.33,0.007,336.8
2020-11-13T01:19:03,42.805,6.029,-0.032,0.003,0.0,103.0,107.0,100.0,13.3,1505.3,325.0,-0.7,1.8,2470.32,13.33,0.032,275.4
2020-11-13T01:22:02,42.805,6.029,-0.017,0.002,-0.003,103.0,107.0,102.0,13.4,1505.3,325.1,-0.7,1.8,2470.344,13.33,0.017,276.7
2020-11-13T01:25:03,42.805,6.029,-0.04,0.008,0.003,104.0,107.0,100.0,13.4,1505.3,328.2,-0.7,1.8,2470.317,13.33,0.04,281.3
2020-11-13T01:28:03,42.805,6.029,-0.03,0.008,-0.018,104.0,108.0,101.0,13.4,1505.3,325.1,-0.7,1.8,2470.329,13.33,0.031,284.9
2020-11-13T01:31:03,42.805,6.029,-0.049,-0.003,-0.018,104.0,107.0,101.0,13.4,1505.3,326.6,-0.7,1.8,2470.339,13.33,0.049,266.5
2020-11-13T01:34:03,42.805,6.029,-0.026,-0.003,-0.035,103.0,107.0,101.0,13.3,1505.3,327.7,-0.7,1.8,2470.333,13.33,0.026,263.4
2020-11-13T01:37:03,42.805,6.029,-0.01,0.004,0.003,104.0,106.0,103.0,13.4,1505.3,323.4,-0.7,1.9,2470.34,13.33,0.01,291.8
2020-11-13T01:40:03,42.805,6.029,-0.016,0.017,0.036,104.0,106.0,101.0,13.3,1505.3,326.4,-0.7,1.8,2470.309,13.33,0.023,316.7
2020-11-13T01:43:03,42.805,6.029,-0.013,0.01,0.006,104.0,107.0,102.0,13.4,1505.3,325.0,-0.7,1.8,2470.372,13.33,0.016,307.6
2020-11-13T01:46:03,42.805,6.029,-0.03,0.007,-0.002,105.0,107.0,102.0,13.3,1505.3,326.2,-0.7,1.8,2470.338,13.33,0.03,283.1
2020-11-13T01:49:03,42.805,6.029,-0.053,-0.004,-0.022,103.0,105.0,102.0,13.4,1505.3,326.8,-0.7,1.8,2470.329,13.33,0.053,265.7
2020-11-13T01:52:03,42.805,6.029,-0.023,0.002,-0.004,104.0,106.0,101.0,13.3,1505.3,325.8,-0.7,1.8,2470.331,13.33,0.023,275.0
2020-11-13T01:55:03,42.805,6.029,-0.049,-0.01,-0.022,104.0,108.0,101.0,13.4,1505.3,328.1,-0.7,1.8,2470.366,13.33,0.05,258.5
2020-11-13T01:58:03,42.805,6.029,-0.024,-0.002,-0.01,104.0,106.0,101.0,13.4,1505.3,324.6,-0.7,1.8,2470.386,13.33,0.024,265.2
2020-11-13T02:04:02,42.805,6.029,-0.017,0.012,0.001,103.0,108.0,101.0,13.4,1505.3,325.0,-0.7,1.8,2470.395,13.31,0.02,305.2
2020-11-13T02:07:03,42.805,6.029,-0.014,-0.009,0.0,105.0,105.0,101.0,13.3,1505.3,324.3,-0.7,1.9,2470.356,13.32,0.016,237.3
2020-11-13T02:10:03,42.805,6.029,-0.021,0.012,-0.01,104.0,107.0,102.0,13.4,1505.3,325.6,-0.7,1.8,2470.382,13.32,0.024,299.7
2020-11-13T02:13:03,42.805,6.029,-0.017,0.005,0.003,104.0,107.0,101.0,13.3,1505.3,326.8,-0.7,1.8,2470.402,13.32,0.017,286.4
2020-11-13T02:16:03,42.805,6.029,-0.029,0.013,0.01,105.0,106.0,102.0,13.4,1505.3,322.8,-0.7,1.8,2470.397,13.33,0.031,294.1
2020-11-13T02:19:03,42.805,6.029,-0.033,-0.002,-0.003,104.0,108.0,101.0,13.4,1505.3,323.0,-0.7,1.8,2470.311,13.33,0.033,266.5
2020-11-13T02:22:03,42.805,6.029,-0.035,-0.003,0.01,105.0,107.0,101.0,13.3,1505.3,324.0,-0.7,1.8,2470.406,13.33,0.035,265.1
2020-11-13T02:25:03,42.805,6.029,-0.037,0.026,-0.02,104.0,108.0,101.0,13.4,1505.3,326.5,-0.7,1.8,2470.39,13.33,0.045,305.1
2020-11-13T02:28:03,42.805,6.029,-0.034,0.008,0.02,104.0,107.0,101.0,13.3,1505.3,328.1,-0.7,1.8,2470.362,13.33,0.034,283.2
2020-11-13T02:31:03,42.805,6.029,-0.048,0.0,0.001,104.0,106.0,102.0,13.4,1505.3,324.4,-0.7,1.8,2470.374,13.33,0.048,270.0
2020-11-13T02:34:03,42.805,6.029,-0.033,0.0,-0.007,103.0,107.0,101.0,13.4,1505.3,323.6,-0.7,1.8,2470.367,13.33,0.033,270.0
2020-11-13T02:37:03,42.805,6.029,-0.028,0.014,-0.007,104.0,107.0,103.0,13.4,1505.3,327.7,-0.7,1.8,2470.369,13.33,0.031,296.6
2020-11-13T02:40:03,42.805,6.029,-0.033,0.011,0.002,104.0,108.0,102.0,13.3,1505.3,323.1,-0.6,1.8,2470.39,13.33,0.034,288.4
2020-11-13T02:43:03,42.805,6.029,-0.04,0.001,-0.018,104.0,108.0,102.0,13.4,1505.3,325.0,-0.7,1.8,2470.358,13.33,0.04,271.4
2020-11-13T02:46:03,42.805,6.029,-0.038,-0.006,-0.001,104.0,107.0,101.0,13.3,1505.3,325.8,-0.7,1.8,2470.399,13.33,0.038,261.0
2020-11-13T02:49:03,42.805,6.029,-0.014,0.026,0.008,104.0,108.0,101.0,13.4,1505.3,326.2,-0.7,1.8,2470.411,13.33,0.029,331.7
2020-11-13T02:52:03,42.805,6.029,-0.055,0.014,-0.027,102.0,108.0,102.0,13.4,1505.3,324.7,-0.7,1.8,2470.384,13.33,0.056,284.3
2020-11-13T02:55:03,42.805,6.029,-0.054,0.006,0.012,104.0,107.0,101.0,13.4,1505.3,328.5,-0.7,1.8,2470.401,13.33,0.054,276.3
2020-11-13T02:58:03,42.805,6.029,-0.023,0.008,-0.016,103.0,108.0,101.0,13.4,1505.3,323.3,-0.7,1.8,2470.433,13.33,0.024,289.2
2020-11-13T03:04:03,42.805,6.029,-0.04,0.011,0.019,105.0,105.0,101.0,13.4,1505.3,323.8,-0.7,1.8,2470.436,13.31,0.041,285.4
2020-11-13T03:07:03,42.805,6.029,-0.047,-0.001,0.0,102.0,107.0,102.0,13.4,1505.3,324.0,-0.7,1.8,2470.447,13.31,0.047,268.8
2020-11-13T03:10:03,42.805,6.029,-0.03,0.019,-0.01,103.0,106.0,102.0,13.4,1505.3,325.8,-0.7,1.8,2470.447,13.32,0.035,302.3
2020-11-13T03:13:03,42.805,6.029,-0.037,0.008,0.015,105.0,107.0,101.0,13.4,1505.3,326.6,-0.7,1.8,2470.444,13.32,0.037,282.2
2020-11-13T03:16:03,42.805,6.029,-0.023,0.022,-0.011,103.0,106.0,103.0,13.4,1505.3,324.8,-0.7,1.9,2470.466,13.32,0.031,313.7
2020-11-13T03:19:03,42.805,6.029,-0.035,0.025,0.005,103.0,108.0,101.0,13.4,1505.3,323.3,-0.7,1.8,2470.473,13.33,0.043,305.5
2020-11-13T03:22:03,42.805,6.029,-0.031,0.02,0.008,104.0,109.0,101.0,13.4,1505.3,324.7,-0.7,1.9,2470.481,13.33,0.036,302.8
2020-11-13T03:25:03,42.805,6.029,-0.029,-0.017,0.005,105.0,107.0,103.0,13.4,1505.3,324.9,-0.7,1.9,2470.45,13.33,0.033,239.6
2020-11-13T03:28:03,42.805,6.029,-0.006,0.015,0.025,103.0,106.0,102.0,13.4,1505.3,325.5,-0.7,1.8,2470.46,13.33,0.016,338.2
2020-11-13T03:31:03,42.805,6.029,-0.057,0.009,-0.017,104.0,108.0,102.0,13.4,1505.3,323.1,-0.7,1.8,2470.462,13.33,0.057,279.0
2020-11-13T03:34:03,42.805,6.029,-0.029,0.008,-0.005,104.0,109.0,102.0,13.4,1505.3,326.3,-0.7,1.8,2470.49,13.33,0.03,285.4
2020-11-13T03:37:03,42.805,6.029,-0.033,0.026,-0.028,104.0,109.0,101.0,13.3,1505.3,326.3,-0.7,1.8,2470.453,13.33,0.042,308.2
2020-11-13T03:40:03,42.805,6.029,-0.032,0.0,0.009,105.0,108.0,101.0,13.4,1505.3,326.5,-0.7,1.8,2470.462,13.33,0.032,270.0
2020-11-13T03:43:03,42.805,6.029,-0.026,0.023,0.013,103.0,109.0,102.0,13.4,1505.3,324.3,-0.7,1.8,2470.472,13.33,0.034,311.5
2020-11-13T03:46:03,42.805,6.029,-0.048,0.0,-0.016,104.0,109.0,100.0,13.4,1505.3,328.2,-0.7,1.8,2470.463,13.33,0.048,270.0
2020-11-13T03:49:03,42.805,6.029,-0.019,0.019,0.019,105.0,110.0,100.0,13.4,1505.3,323.3,-0.7,1.8,2470.471,13.33,0.026,315.0
2020-11-13T03:52:03,42.805,6.029,-0.05,0.019,-0.016,106.0,108.0,100.0,13.3,1505.3,326.8,-0.7,1.8,2470.484,13.33,0.053,290.8
2020-11-13T03:55:03,42.805,6.029,-0.036,0.018,-0.008,104.0,107.0,101.0,13.4,1505.3,325.4,-0.7,1.8,2470.468,13.33,0.04,296.6
2020-11-13T03:58:03,42.805,6.029,-0.051,0.014,0.0,105.0,108.0,101.0,13.3,1505.3,326.8,-0.7,1.8,2470.489,13.33,0.052,285.3
2020-11-13T04:04:03,42.805,6.029,-0.017,0.027,0.001,104.0,109.0,102.0,13.4,1505.3,322.7,-0.7,1.8,2470.533,13.31,0.031,327.8
2020-11-13T04:07:03,42.805,6.029,-0.023,0.009,0.013,104.0,109.0,102.0,13.3,1505.3,326.7,-0.7,1.9,2470.471,13.31,0.024,291.4
2020-11-13T04:10:03,42.805,6.029,-0.06,0.008,0.023,104.0,108.0,101.0,13.4,1505.3,325.0,-0.7,1.8,2470.483,13.32,0.06,277.6
2020-11-13T04:13:03,42.805,6.029,-0.08,0.0,-0.047,103.0,109.0,102.0,13.3,1505.3,324.1,-0.7,1.8,2470.557,13.32,0.079,270.0
2020-11-13T04:16:03,42.805,6.029,-0.067,0.017,-0.018,105.0,108.0,101.0,13.4,1505.3,327.3,-0.7,1.8,2470.522,13.32,0.069,284.2
2020-11-13T04:19:03,42.805,6.029,-0.049,0.011,-0.037,104.0,108.0,101.0,13.4,1505.3,325.2,-0.7,1.8,2470.519,13.33,0.05,282.7
2020-11-13T04:25:02,42.805,6.029,-0.032,0.001,-0.017,104.0,109.0,102.0,13.4,1505.3,323.3,-0.8,1.8,2470.499,13.31,0.032,271.8
2020-11-13T04:28:03,42.805,6.029,-0.046,-0.007,-0.017,103.0,112.0,100.0,13.4,1505.3,323.8,-0.7,1.9,2470.561,13.31,0.046,261.3
2020-11-13T04:31:03,42.805,6.029,-0.055,0.021,0.006,104.0,109.0,101.0,13.4,1505.3,327.0,-0.7,1.8,2470.545,13.32,0.058,290.9
2020-11-13T04:34:03,42.805,6.029,-0.026,-0.006,-0.007,103.0,109.0,102.0,13.4,1505.3,326.8,-0.7,1.8,2470.499,13.32,0.026,257.0
2020-11-13T04:37:03,42.805,6.029,-0.061,0.023,-0.005,104.0,109.0,103.0,13.4,1505.3,324.7,-0.7,1.8,2470.523,13.32,0.065,290.7
2020-11-13T04:40:03,42.805,6.029,-0.049,0.012,-0.054,103.0,110.0,102.0,13.4,1505.3,326.9,-0.7,1.8,2470.525,13.33,0.05,283.8
2020-11-13T04:43:03,42.805,6.029,-0.038,0.013,-0.024,104.0,108.0,102.0,13.4,1505.3,323.9,-0.7,1.9,2470.486,13.33,0.04,288.9
2020-11-13T04:46:03,42.805,6.029,-0.035,0.002,-0.031,104.0,109.0,102.0,13.4,1505.3,325.5,-0.7,1.8,2470.498,13.33,0.035,273.3
2020-11-13T04:49:03,42.805,6.029,-0.024,0.01,0.003,104.0,110.0,101.0,13.4,1505.3,326.3,-0.7,1.9,2470.502,13.33,0.026,292.6
2020-11-13T04:52:03,42.805,6.029,-0.036,0.02,-0.009,104.0,110.0,102.0,13.4,1505.3,326.0,-0.7,1.8,2470.512,13.33,0.041,299.1
2020-11-13T04:55:03,42.805,6.029,-0.014,0.03,0.005,103.0,108.0,101.0,13.4,1505.3,327.8,-0.7,1.8,2470.549,13.33,0.033,335.0
2020-11-13T04:58:03,42.805,6.029,-0.04,-0.002,0.0,102.0,109.0,102.0,13.4,1505.3,324.3,-0.7,1.9,2470.554,13.33,0.04,267.1
2020-11-13T05:04:03,42.805,6.029,-0.012,0.001,0.002,104.0,108.0,102.0,13.4,1505.3,325.3,-0.7,1.8,2470.544,13.31,0.012,274.8
2020-11-13T05:07:03,42.805,6.029,-0.023,0.006,-0.01,104.0,107.0,102.0,13.4,1505.3,324.3,-0.7,1.9,2470.513,13.32,0.023,284.6
2020-11-13T05:10:03,42.805,6.029,-0.05,0.024,-0.022,104.0,108.0,101.0,13.3,1505.3,328.2,-0.7,1.8,2470.524,13.32,0.055,295.6
2020-11-13T05:13:03,42.805,6.029,-0.035,0.004,-0.036,105.0,110.0,102.0,13.4,1505.3,322.9,-0.7,1.8,2470.532,13.33,0.035,276.5
2020-11-13T05:16:03,42.805,6.029,-0.036,0.028,0.009,103.0,111.0,101.0,13.3,1505.3,326.4,-0.7,1.8,2470.507,13.33,0.045,307.9
2020-11-13T05:19:03,42.805,6.029,-0.037,0.028,0.011,103.0,110.0,102.0,13.4,1505.3,326.5,-0.7,1.8,2470.515,13.33,0.046,307.1
2020-11-13T05:22:03,42.805,6.029,-0.037,0.014,0.019,104.0,110.0,101.0,13.3,1505.3,325.8,-0.7,1.8,2470.523,13.33,0.039,290.7
2020-11-13T05:25:03,42.805,6.029,-0.049,0.014,0.024,104.0,110.0,100.0,13.4,1505.3,327.2,-0.7,1.8,2470.489,13.33,0.05,285.9
2020-11-13T05:28:03,42.805,6.029,-0.063,0.004,-0.042,104.0,109.0,101.0,13.3,1505.3,326.2,-0.7,1.8,2470.488,13.33,0.063,273.6
2020-11-13T05:31:03,42.805,6.029,-0.035,0.018,-0.01,103.0,110.0,102.0,13.3,1505.3,325.9,-0.7,1.8,2470.535,13.33,0.039,297.2
2020-11-13T05:34:03,42.805,6.029,-0.052,0.02,-0.032,103.0,109.0,102.0,13.4,1505.3,326.4,-0.7,1.8,2470.503,13.33,0.055,291.0
2020-11-13T05:37:03,42.805,6.029,-0.057,0.016,-0.011,103.0,111.0,101.0,13.4,1505.3,327.0,-0.7,1.8,2470.521,13.33,0.059,285.7
2020-11-13T05:40:03,42.805,6.029,-0.023,0.01,-0.003,103.0,109.0,102.0,13.4,1505.3,326.4,-0.7,1.9,2470.525,13.33,0.025,293.5
2020-11-13T05:43:03,42.805,6.029,-0.031,0.015,0.005,103.0,109.0,101.0,13.4,1505.3,327.0,-0.7,1.9,2470.554,13.33,0.034,295.8
2020-11-13T05:46:03,42.805,6.029,-0.052,0.023,-0.015,103.0,108.0,101.0,13.4,1505.3,326.9,-0.7,1.8,2470.481,13.33,0.056,293.9
2020-11-13T05:49:03,42.805,6.029,-0.019,0.002,-0.014,103.0,109.0,100.0,13.3,1505.3,324.7,-0.7,1.8,2470.523,13.33,0.019,276.0
2020-11-13T05:52:03,42.805,6.029,-0.04,0.012,-0.027,105.0,107.0,103.0,13.4,1505.3,326.4,-0.7,1.9,2470.524,13.33,0.041,286.7
2020-11-13T05:55:03,42.805,6.029,-0.022,0.021,-0.011,104.0,106.0,102.0,13.4,1505.3,326.1,-0.7,1.8,2470.486,13.33,0.03,313.7
2020-11-13T05:58:03,42.805,6.029,-0.045,0.016,0.0,104.0,110.0,101.0,13.4,1505.3,325.0,-0.8,1.8,2470.494,13.33,0.047,289.6
2020-11-13T06:04:03,42.805,6.029,-0.047,0.018,0.012,103.0,109.0,102.0,13.4,1505.3,324.7,-0.8,1.8,2470.567,13.31,0.05,291.0
2020-11-13T06:07:03,42.805,6.029,0.017,0.027,-0.009,104.0,106.0,102.0,13.4,1505.3,323.3,-0.7,1.8,2470.537,13.32,0.031,32.2
2020-11-13T06:10:03,42.805,6.029,-0.002,0.011,0.025,104.0,107.0,102.0,13.4,1505.3,325.7,-0.7,1.8,2470.545,13.33,0.011,349.7
2020-11-13T06:13:03,42.805,6.029,-0.011,0.028,0.017,105.0,107.0,102.0,13.4,1505.3,325.7,-0.7,1.8,2470.505,13.33,0.03,338.6
2020-11-13T06:16:03,42.805,6.029,-0.03,0.004,0.001,104.0,107.0,102.0,13.3,1505.3,323.2,-0.7,1.8,2470.511,13.33,0.03,277.6
2020-11-13T06:19:03,42.805,6.029,-0.014,0.014,-0.022,103.0,109.0,102.0,13.4,1505.3,327.6,-0.7,1.8,2470.536,13.33,0.019,315.0
2020-11-13T06:22:03,42.805,6.029,-0.003,0.012,-0.007,104.0,108.0,100.0,13.4,1505.3,322.8,-0.7,1.8,2470.555,13.33,0.012,346.0
2020-11-13T06:25:03,42.805,6.029,-0.015,-0.005,-0.012,102.0,108.0,102.0,13.4,1505.3,326.3,-0.7,1.8,2470.514,13.33,0.015,251.6
2020-11-13T06:28:03,42.805,6.029,-0.021,0.017,-0.005,104.0,107.0,101.0,13.4,1505.3,323.9,-0.7,1.8,2470.53,13.33,0.027,309.0
2020-11-13T06:31:03,42.805,6.029,-0.009,0.011,-0.009,103.0,106.0,102.0,13.3,1505.3,327.7,-0.7,1.8,2470.523,13.33,0.014,320.7
2020-11-13T06:34:03,42.805,6.029,-0.014,0.005,-0.009,102.0,108.0,102.0,13.4,1505.4,325.1,-0.7,1.8,2470.456,13.34,0.014,289.6
2020-11-13T06:37:03,42.805,6.029,-0.005,0.001,0.008,103.0,107.0,102.0,13.4,1505.4,324.2,-0.7,1.8,2470.522,13.34,0.005,281.3
2020-11-13T06:40:03,42.805,6.029,-0.031,0.022,-0.003,103.0,107.0,102.0,13.4,1505.4,326.4,-0.7,1.8,2470.497,13.34,0.038,305.4
2020-11-13T06:43:03,42.805,6.029,-0.019,0.018,0.022,105.0,107.0,100.0,13.3,1505.4,325.0,-0.7,1.8,2470.505,13.34,0.026,313.5
2020-11-13T06:46:03,42.805,6.029,-0.001,0.029,0.017,103.0,108.0,102.0,13.3,1505.4,325.6,-0.7,1.9,2470.484,13.34,0.029,358.0
2020-11-13T06:49:03,42.805,6.029,-0.019,0.007,-0.001,105.0,107.0,102.0,13.4,1505.4,326.7,-0.7,1.8,2470.488,13.34,0.02,290.2
2020-11-13T06:52:03,42.805,6.029,-0.004,0.035,0.024,103.0,107.0,101.0,13.4,1505.4,325.0,-0.7,1.8,2470.478,13.34,0.035,353.5
2020-11-13T06:55:03,42.805,6.029,-0.038,-0.003,-0.003,102.0,108.0,100.0,13.4,1505.4,324.3,-0.7,1.8,2470.54,13.34,0.038,265.5
2020-11-13T06:58:03,42.805,6.029,-0.027,0.015,-0.023,103.0,107.0,102.0,13.4,1505.4,326.7,-0.7,1.8,2470.522,13.34,0.03,299.1
2020-11-13T07:04:03,42.805,6.029,0.018,0.014,0.01,104.0,107.0,101.0,13.4,1505.3,326.7,-0.7,1.8,2470.54,13.32,0.022,52.1
2020-11-13T07:07:03,42.805,6.029,-0.026,0.004,-0.032,102.0,107.0,102.0,13.4,1505.3,324.3,-0.7,1.8,2470.553,13.32,0.026,278.7
2020-11-13T07:10:03,42.805,6.029,-0.053,0.007,0.017,103.0,107.0,103.0,13.3,1505.3,323.3,-0.7,1.8,2470.504,13.33,0.053,277.5
2020-11-13T07:13:03,42.805,6.029,-0.001,0.009,-0.009,104.0,108.0,102.0,13.4,1505.3,324.5,-0.7,1.8,2470.499,13.33,0.009,353.7
2020-11-13T07:16:03,42.805,6.029,0.0,0.021,0.008,103.0,107.0,102.0,13.4,1505.3,325.6,-0.7,1.8,2470.519,13.33,0.021,0.0
2020-11-13T07:19:03,42.805,6.029,-0.005,0.006,-0.016,102.0,107.0,101.0,13.4,1505.3,326.7,-0.7,1.8,2470.504,13.33,0.007,320.2
2020-11-13T07:22:03,42.805,6.029,-0.01,0.002,-0.001,104.0,106.0,101.0,13.4,1505.3,324.0,-0.7,1.9,2470.483,13.33,0.01,281.3
2020-11-13T07:25:03,42.805,6.029,-0.004,0.006,0.004,102.0,106.0,101.0,13.4,1505.4,326.5,-0.7,1.8,2470.502,13.34,0.007,326.3
2020-11-13T07:28:03,42.805,6.029,-0.025,0.002,-0.004,104.0,107.0,102.0,13.3,1505.4,323.5,-0.7,1.8,2470.483,13.34,0.025,274.6
2020-11-13T07:31:03,42.805,6.029,-0.008,0.012,0.017,103.0,109.0,102.0,13.4,1505.4,324.5,-0.7,1.8,2470.5,13.34,0.014,326.3
2020-11-13T07:34:03,42.805,6.029,-0.019,0.013,0.012,104.0,108.0,102.0,13.4,1505.4,322.6,-0.7,1.8,2470.496,13.34,0.023,304.4
2020-11-13T07:37:03,42.805,6.029,0.009,-0.002,-0.019,103.0,108.0,101.0,13.3,1505.4,327.2,-0.7,1.8,2470.459,13.34,0.009,102.5
2020-11-13T07:40:03,42.805,6.029,-0.001,0.014,0.008,103.0,108.0,103.0,13.4,1505.4,324.9,-0.7,1.8,2470.46,13.34,0.014,355.9
2020-11-13T07:43:03,42.805,6.029,-0.017,0.019,0.001,107.0,107.0,100.0,13.4,1505.4,324.5,-0.7,1.9,2470.455,13.34,0.025,318.2
2020-11-13T07:46:03,42.805,6.029,-0.015,0.003,0.001,104.0,108.0,102.0,13.4,1505.4,323.2,-0.7,1.8,2470.509,13.34,0.015,281.3
2020-11-13T07:49:03,42.805,6.029,0.015,-0.013,-0.026,104.0,106.0,101.0,13.4,1505.4,327.8,-0.7,1.8,2470.467,13.34,0.019,130.9
2020-11-13T07:52:03,42.805,6.029,-0.018,0.009,0.009,104.0,107.0,101.0,13.3,1505.4,325.8,-0.7,1.8,2470.472,13.34,0.02,296.6
2020-11-13T07:55:03,42.805,6.029,-0.018,0.004,0.0,104.0,108.0,103.0,13.3,1505.4,326.9,-0.7,1.9,2470.438,13.34,0.018,282.5
2020-11-13T07:58:03,42.805,6.029,-0.01,0.009,0.019,104.0,107.0,102.0,13.3,1505.4,326.3,-0.7,1.8,2470.469,13.34,0.013,312.0
2020-11-13T08:04:03,42.805,6.029,-0.008,-0.009,-0.029,104.0,107.0,100.0,13.4,1505.3,323.8,-0.7,1.8,2470.469,13.32,0.012,221.6
2020-11-13T08:07:03,42.805,6.029,-0.007,0.006,0.009,103.0,108.0,101.0,13.4,1505.3,323.0,-0.7,1.8,2470.535,13.33,0.009,310.6
2020-11-13T08:10:03,42.805,6.029,-0.031,0.001,-0.031,102.0,106.0,102.0,13.4,1505.3,323.3,-0.7,1.8,2470.499,13.33,0.031,271.8
2020-11-13T08:13:03,42.805,6.029,-0.004,0.011,0.027,103.0,109.0,100.0,13.3,1505.3,323.7,-0.7,1.8,2470.509,13.33,0.011,340.0
2020-11-13T08:16:03,42.805,6.029,-0.022,0.009,0.015,103.0,107.0,101.0,13.4,1505.3,324.7,-0.7,1.8,2470.471,13.33,0.023,292.2
2020-11-13T08:19:03,42.805,6.029,-0.04,0.012,0.015,104.0,107.0,102.0,13.4,1505.4,323.5,-0.7,1.8,2470.473,13.34,0.041,286.7
2020-11-13T08:22:03,42.805,6.029,-0.012,0.01,0.011,102.0,107.0,101.0,13.4,1505.4,323.4,-0.7,1.9,2470.504,13.34,0.015,309.8
2020-11-13T08:25:03,42.805,6.029,-0.008,0.01,-0.016,104.0,107.0,101.0,13.4,1505.4,323.2,-0.7,1.9,2470.48,13.34,0.012,321.3
2020-11-13T08:28:03,42.805,6.029,0.011,0.0,0.008,102.0,107.0,102.0,13.3,1505.4,322.8,-0.7,1.8,2470.459,13.34,0.011,90.0
2020-11-13T08:31:03,42.805,6.029,-0.038,0.016,-0.008,104.0,108.0,102.0,13.4,1505.4,324.0,-0.7,1.8,2470.46,13.34,0.041,292.8
2020-11-13T08:34:03,42.805,6.029,-0.034,0.011,-0.002,102.0,108.0,101.0,13.4,1505.4,325.9,-0.7,1.8,2470.407,13.34,0.035,287.9
2020-11-13T08:37:03,42.805,6.029,-0.003,0.017,-0.011,102.0,109.0,101.0,13.4,1505.4,326.3,-0.7,1.8,2470.491,13.34,0.017,350.0
2020-11-13T08:40:03,42.805,6.029,0.007,-0.001,0.01,104.0,107.0,103.0,13.4,1505.4,324.8,-0.7,1.8,2470.426,13.34,0.007,98.1
2020-11-13T08:43:03,42.805,6.029,-0.019,0.005,0.031,103.0,109.0,102.0,13.4,1505.4,325.7,-0.7,1.8,2470.436,13.34,0.019,284.7
2020-11-13T08:49:03,42.805,6.029,-0.025,0.024,0.005,105.0,108.0,102.0,13.4,1505.3,326.2,-0.7,1.8,2470.47,13.32,0.034,313.8
2020-11-13T08:52:03,42.805,6.029,-0.012,-0.009,0.019,103.0,107.0,102.0,13.4,1505.3,326.4,-0.7,1.8,2470.431,13.33,0.015,233.1
2020-11-13T08:55:03,42.805,6.029,-0.002,0.03,0.014,103.0,107.0,102.0,13.4,1505.3,327.1,-0.7,1.8,2470.491,13.33,0.03,356.2
2020-11-13T08:58:03,42.805,6.029,-0.023,0.02,-0.024,104.0,108.0,101.0,13.4,1505.3,326.2,-0.7,1.8,2470.407,13.33,0.03,311.0
2020-11-13T09:04:03,42.805,6.029,0.0,0.007,0.023,104.0,107.0,101.0,13.4,1505.3,327.5,-0.7,1.8,2470.487,13.32,0.007,0.0
2020-11-13T09:07:03,42.805,6.029,-0.009,0.013,0.006,104.0,107.0,101.0,13.4,1505.3,325.8,-0.8,1.8,2470.482,13.32,0.015,325.3
2020-11-13T09:10:03,42.805,6.029,0.012,0.009,0.03,102.0,108.0,101.0,13.4,1505.3,322.7,-0.7,1.8,2470.455,13.33,0.015,53.1
2020-11-13T09:13:03,42.805,6.029,-0.022,-0.002,-0.021,103.0,108.0,101.0,13.4,1505.3,325.4,-0.7,1.8,2470.485,13.33,0.022,264.8
2020-11-13T09:16:03,42.805,6.029,-0.009,0.024,0.018,104.0,108.0,103.0,13.3,1505.3,325.9,-0.7,1.8,2470.436,13.33,0.025,339.4
2020-11-13T09:19:03,42.805,6.029,-0.005,0.016,-0.01,104.0,107.0,102.0,13.3,1505.4,325.1,-0.7,1.8,2470.494,13.34,0.016,342.6
2020-11-13T09:22:03,42.805,6.029,-0.022,0.02,0.007,104.0,108.0,102.0,13.4,1505.4,325.0,-0.7,1.8,2470.424,13.34,0.029,312.3
2020-11-13T09:25:03,42.805,6.029,-0.045,0.014,0.006,105.0,107.0,101.0,13.3,1505.4,326.5,-0.7,1.8,2470.372,13.34,0.047,287.3
2020-11-13T09:28:03,42.805,6.029,-0.038,0.001,-0.025,105.0,108.0,102.0,13.4,1505.4,324.9,-0.7,1.9,2470.458,13.34,0.038,271.5
2020-11-13T09:31:03,42.805,6.029,-0.017,0.005,-0.035,104.0,107.0,102.0,13.4,1505.4,324.7,-0.7,1.8,2470.402,13.34,0.017,286.4
2020-11-13T09:34:03,42.805,6.029,-0.006,0.024,0.011,105.0,107.0,102.0,13.3,1505.4,325.8,-0.7,1.8,2470.414,13.34,0.024,346.0
2020-11-13T09:37:03,42.805,6.029,0.0,0.0,-0.007,105.0,108.0,103.0,13.3,1505.4,326.5,-0.7,1.8,2470.401,13.34,0.0,0.0
2020-11-13T09:40:03,42.805,6.029,-0.019,0.004,-0.015,105.0,107.0,101.0,13.3,1505.4,327.0,-0.7,1.8,2470.41,13.34,0.019,281.9
2020-11-13T09:43:03,42.805,6.029,0.012,0.002,0.016,104.0,108.0,102.0,13.4,1505.4,326.3,-0.7,1.8,2470.399,13.34,0.012,80.5
2020-11-13T09:46:03,42.805,6.029,-0.011,0.006,-0.004,105.0,106.0,102.0,13.4,1505.4,326.7,-0.7,1.8,2470.375,13.34,0.012,298.6
2020-11-13T09:49:03,42.805,6.029,-0.006,0.016,0.016,104.0,107.0,101.0,13.4,1505.4,326.9,-0.7,1.8,2470.39,13.34,0.017,339.4
2020-11-13T09:52:03,42.805,6.029,-0.033,0.03,-0.011,105.0,107.0,101.0,13.3,1505.4,326.4,-0.7,1.8,2470.429,13.34,0.044,312.3
2020-11-13T09:55:03,42.805,6.029,-0.026,0.012,-0.03,105.0,108.0,102.0,13.4,1505.4,324.1,-0.7,1.8,2470.411,13.34,0.028,294.8
2020-11-13T09:58:03,42.805,6.029,-0.03,0.007,-0.008,104.0,108.0,102.0,13.4,1505.4,324.7,-0.7,1.8,2470.373,13.34,0.03,283.1
2020-11-13T10:04:03,42.805,6.029,-0.016,-0.014,0.014,104.0,108.0,103.0,13.4,1505.3,325.8,-0.7,1.8,2470.458,13.32,0.021,228.8